Weather Service Report


005 
ASUS45 KSLC 071610
RWRUT 

UTAH REGIONAL WEATHER ROUNDUP
NATIONAL WEATHER SERVICE SALT LAKE CITY UT
900 AM MST SAT DEC 07 2019

UTZ001>011-023>025-071700-

NORTHERN UTAH
  
CITY           SKY/WX    TMP DP  RH WIND       PRES   REMARKS
BRIGHAM CITY   CLOUDY    28  26  91 CALM      30.17R VSB<1/4          
HILL AFB       SUNNY     33  25  74 E6        30.13S WCI  27          
LOGAN          FOG       26  23  88 NE7       30.15R VSB<1/4 WCI  18  
OGDEN          FOG       27  23  85 NW5       30.14R VSB 1   WCI  22  
SALT LAKE CITY FOG       29  29 100 CALM      30.14S VSB 1/8          
TOOELE VALLEY  FOG      N/A N/A N/A CALM      30.15S VSB<1/4          
WENDOVER       CLOUDY    34  33  96 W5        30.16R WCI  30          
HEBER CITY     CLOUDY    32  28  86 CALM      30.15S                  
WEST JORDAN    MOSUNNY   29  29 100 CALM      30.14S                  

$$

UTZ011>015-024>027-071700-

CENTRAL/NORTHEAST UTAH
  
CITY           SKY/WX    TMP DP  RH WIND       PRES   REMARKS
PROVO AIRPORT  PTSUNNY   37  30  75 E7        30.18R WCI  32          
MOAB/CANYONLAN CLOUDY    41  36  82 SE3       30.24R                  
DELTA          CLOUDY    41  32  70 S10       30.16R                  
PRICE          CLOUDY    37  34  89 E3        30.24S                  
RICHFIELD      CLOUDY    37  32  81 CALM      30.19R                  
ROOSEVELT      CLOUDY    34  32  93 CALM      30.26S                  
DUCHESNE       CLOUDY    32  28  86 W5        30.24R WCI  27          
VERNAL         CLOUDY    35  33  92 NW3       30.23R FOG              

$$

UTZ013>016-019>022-027-071700-

SOUTHERN UTAH
  
CITY           SKY/WX    TMP DP  RH WIND       PRES   REMARKS
BRYCE CANYON   CLOUDY    27  25  92 SW3       30.27S                  
CEDAR CITY     PTSUNNY   44  34  67 SW6       30.18R                  
MILFORD        CLOUDY    42  34  73 SW12      30.18R                  
ST GEORGE      CLOUDY    50  40  68 SE3       30.22S                  
HANKSVILLE     CLOUDY    34  34 100 CALM      30.29R VSB 1/4          
KANAB          CLOUDY    41  36  81 N8        30.30R                  
BLANDING         N/A     39  33  80 W3        30.38S                  

$$

REGIONAL REPORTS     COLORADO/ARIZONA
  
CITY           SKY/WX    TMP DP  RH WIND       PRES   REMARKS
CRAIG, CO      SUNNY     19  17  92 CALM      30.23F                  
GRAND JUNCTION MOSUNNY   34  28  79 SE10      30.28R WCI  26          
RIFLE, CO      PTSUNNY   30  25  81 CALM      30.31R                  
MONTROSE, CO   MOSUNNY   32  26  78 CALM      30.32S                  
CORTEZ, CO     MOSUNNY   32  28  85 SE3       30.32R                  
COLORADO CITY  CLOUDY    41  37  87 SE3       30.27S                  
PAGE, AZ       CLOUDY    41  37  86 SW3       30.28R                  
GRAND CANYON   PTSUNNY   29  27  92 CALM      30.29R                  
KINGMAN, AZ    MOSUNNY   48  39  71 SE13      30.21S                  
FLAGSTAFF, AZ  PTSUNNY   36  34  92 SW3       30.31R                  

$$

REGIONAL REPORTS    NEVADA/IDAHO/WYOMING
  
CITY           SKY/WX    TMP DP  RH WIND       PRES   REMARKS
LAS VEGAS, NV  PTSUNNY   54  46  74 E3        30.17R                  
ELY, NY        CLOUDY    38  33  82 SW10      30.14S WCI  31          
ELKO, NV       NOT AVBL                                               
POCATELLO, ID  MOCLDY    33  29  85 S17G23    30.09R WCI  22          
BURLEY, ID     CLOUDY    41  30  65 S14       30.05R                  
EVANSTON, WY   SUNNY     29  20  69 SW10      30.12R WCI  20          
ROCK SPRINGS,  FOG       13  12  96 W5        30.15R VSB<1/4 WCI   5  
KEMMERER, WY   SUNNY     14  10  85 CALM      30.13R                  

$$
  

Return to Home page


Western Regional Climate Center, wrcc@dri.edu